FW9594 Weather Reports


Display with metric or nautical units.
time (UTC)temp
F
wind
direction
speed
MPH
gust
MPH
rain 1hr
in
rain 24hr
in
rain mn
in
humidity
%
barometer
mb
20260508110521 60 87 0.0 0.0 0.20 0.30 0.30 91 1013.4
20260508105958 60 219 0.0 0.0 0.21 0.10 0.30 91 1013.5
20260508104520 61 237 0.0 0.0 0.22 0.10 0.30 90 1013.5
20260508103956 60 148 0.0 2.0 0.21 0.10 0.29 90 1013.6
20260508103007 60 245 3.0 5.0 0.07 0.10 0.14 90 1014.9
20260508101521 60 272 0.0 0.0 0.02 0.10 0.10 90 1013.4
20260508100521 60 272 0.0 0.0 0.02 0.10 0.10 90 1013.4
20260508095522 60 125 0.0 0.0 0.01 0.08 0.09 91 1013.0
20260508094521 60 195 0.0 0.0 0.00 0.08 0.08 91 1013.3
20260508094006 60 195 0.0 0.0 0.01 0.08 0.08 91 1012.9
20260508092959 60 195 0.0 0.0 0.01 0.08 0.08 90 1013.1
20260508091521 60 195 0.0 0.0 0.03 0.08 0.08 90 1013.1
20260508090520 60 195 0.0 0.0 0.03 0.08 0.08 90 1013.2
20260508085521 60 195 0.0 0.0 0.04 0.05 0.08 89 1013.4
20260508084521 61 164 0.0 0.0 0.05 0.05 0.08 89 1013.1
20260508083521 61 157 0.0 1.0 0.04 0.05 0.07 89 1013.5
20260508082522 61 39 0.0 3.0 0.05 0.05 0.07 89 1013.7
20260508081521 61 45 1.0 6.0 0.05 0.05 0.05 88 1014.1
20260508080522 61 73 1.0 3.0 0.05 0.05 0.05 86 1014.1
20260508075522 62 276 0.0 1.0 0.04 0.00 0.04 87 1013.4
20260508074954 62 276 0.0 1.0 0.03 0.00 0.03 85 1014.2
20260508073522 62 281 0.0 0.0 0.03 0.00 0.03 83 1014.4
20260508073441 63 281 0.0 3.0 0.02 0.00 0.02 80 1014.8
20260508071521 63 278 0.0 2.0 0.00 0.00 0.00 78 1014.8
20260508070522 63 272 0.0 1.0 0.00 0.00 0.00 78 1014.4
20260508065521 63 272 0.0 0.0 0.00 0.00 0.00 77 1014.3
20260508064522 63 272 0.0 0.0 0.00 0.00 0.00 75 1014.2
20260508063522 63 272 0.0 0.0 0.00 0.00 0.00 75 1014.7
20260508062956 62 272 0.0 0.0 0.00 0.00 0.00 75 1014.7
20260508061522 62 272 0.0 0.0 0.00 0.00 0.00 75 1015.1
20260508060522 62 272 0.0 0.0 0.00 0.00 0.00 75 1015.1
20260508055521 62 272 0.0 0.0 0.00 0.00 0.00 75 1014.8
20260508054522 62 271 0.0 0.0 0.00 0.00 0.00 74 1014.9
20260508053522 62 271 0.0 0.0 0.00 0.00 0.00 73 1014.8
20260508052521 62 271 0.0 0.0 0.00 0.00 0.00 72 1014.7
20260508051521 62 271 0.0 0.0 0.00 0.00 0.00 72 1014.9
20260508050521 62 271 0.0 0.0 0.00 0.00 0.00 72 1014.9
20260508045521 62 271 0.0 0.0 0.00 0.00 0.00 72 1014.9
20260508044522 62 271 0.0 0.0 0.00 0.00 0.00 73 1015.1
20260508043521 62 271 0.0 0.0 0.00 0.00 0.00 72 1014.8
20260508042522 62 271 0.0 0.0 0.00 0.00 0.00 73 1014.9
20260508042007 62 271 0.0 0.0 0.00 0.00 0.00 73 1014.9
20260508040521 62 271 0.0 0.0 0.00 0.00 0.00 72 1014.8
20260508035522 62 271 0.0 0.0 0.00 0.00 0.00 72 1014.9
20260508034521 62 271 0.0 0.0 0.00 0.00 0.00 70 1014.8
20260508033521 63 271 0.0 0.0 0.00 0.00 0.00 70 1014.7
20260508032521 63 271 0.0 0.0 0.00 0.00 0.00 70 1014.7
20260508032439 63 271 0.0 0.0 0.00 0.00 0.00 70 1014.6
20260508030522 63 271 0.0 1.0 0.00 0.00 0.00 70 1014.5
20260508030010 63 269 0.0 1.0 0.00 0.00 0.00 70 1014.5
20260508024519 63 271 0.0 0.0 0.00 0.00 0.00 69 1014.4
20260508023518 64 271 0.0 0.0 0.00 0.00 0.00 68 1014.2
20260508022519 64 271 0.0 0.0 0.00 0.00 0.00 67 1014.2
20260508021956 65 269 0.0 1.0 0.00 0.00 0.00 66 1014.1
20260508020519 65 214 0.0 1.0 0.00 0.00 0.00 66 1013.9
20260508015956 65 151 0.0 0.0 0.00 0.00 0.00 65 1013.9
20260508014956 66 151 0.0 0.0 0.00 0.00 0.00 64 1014.0
20260508013518 67 151 0.0 2.0 0.00 0.00 0.00 62 1013.9
20260508012519 67 228 0.0 1.0 0.00 0.00 0.00 62 1013.9
20260508011519 67 262 0.0 2.0 0.00 0.00 0.00 61 1013.9
20260508010520 68 275 0.0 0.0 0.00 0.00 0.00 61 1013.9
20260508005520 68 90 0.0 1.0 0.00 0.00 0.00 60 1013.9
20260508004519 69 204 0.0 1.0 0.00 0.00 0.00 59 1013.8
20260508003520 70 140 0.0 2.0 0.00 0.00 0.00 57 1013.9
20260508002520 71 247 0.0 2.0 0.00 0.00 0.00 56 1013.7
20260508001957 72 158 0.0 3.0 0.00 0.00 0.00 56 1013.9
20260508000520 72 268 0.0 4.0 0.00 0.00 0.00 56 1014.2
20260507235519 72 127 1.0 3.0 0.00 0.00 0.00 54 1014.0
20260507234519 73 192 1.0 4.0 0.00 0.00 0.00 53 1014.1
20260507233519 74 190 1.0 2.0 0.00 0.00 0.00 53 1014.1
20260507232521 73 116 0.0 1.0 0.00 0.00 0.00 51 1014.0
20260507231521 73 38 0.0 1.0 0.00 0.00 0.00 48 1014.0
20260507230521 73 44 0.0 3.0 0.00 0.00 0.00 48 1014.0
20260507225520 73 37 2.0 4.0 0.00 0.00 0.00 49 1014.1
20260507225009 73 35 0.0 0.0 0.00 0.00 0.00 49 1014.2
20260507223521 72 34 1.0 2.0 0.00 0.00 0.00 51 1014.2
20260507222521 73 35 2.0 4.0 0.00 0.00 0.00 49 1014.4
20260507221521 73 4 0.0 3.0 0.00 0.00 0.00 48 1014.4
20260507221003 73 38 1.0 3.0 0.00 0.00 0.00 48 1014.5
20260507220010 73 25 1.0 4.0 0.00 0.00 0.00 49 1014.6
20260507214521 74 336 0.0 4.0 0.00 0.00 0.00 46 1014.7
20260507213520 74 159 0.0 3.0 0.00 0.00 0.00 50 1014.7
20260507212957 73 44 3.0 6.0 0.00 0.00 0.00 48 1014.8
20260507211522 74 34 2.0 3.0 0.00 0.00 0.00 47 1014.9
20260507210520 74 27 1.0 5.0 0.00 0.00 0.00 46 1015.2
20260507205521 75 35 2.0 7.0 0.00 0.00 0.00 46 1015.2
20260507205003 75 123 2.0 5.0 0.00 0.00 0.00 44 1015.2
20260507203520 73 30 2.0 6.0 0.00 0.00 0.00 47 1015.1
20260507202521 74 85 2.0 5.0 0.00 0.00 0.00 46 1015.3
20260507201521 74 262 2.0 7.0 0.00 0.00 0.00 47 1015.5
20260507200520 74 47 4.0 7.0 0.00 0.00 0.00 47 1015.6
20260507195521 73 37 5.0 12.0 0.00 0.00 0.00 48 1015.8
20260507194521 73 44 3.0 9.0 0.00 0.00 0.00 47 1015.8
20260507193521 73 45 6.0 11.0 0.00 0.00 0.00 50 1016.1
20260507192521 73 44 1.0 5.0 0.00 0.00 0.00 49 1016.1
20260507192007 71 27 2.0 10.0 0.00 0.00 0.00 50 1016.3
20260507190958 71 56 4.0 12.0 0.00 0.00 0.00 51 1016.5
20260507185520 71 54 3.0 12.0 0.00 0.00 0.00 49 1016.6
20260507185452 70 24 4.0 12.0 0.00 0.00 0.00 54 1016.6
20260507183521 70 58 8.0 12.0 0.00 0.00 0.00 51 1016.7
20260507182520 70 28 6.0 10.0 0.00 0.00 0.00 56 1016.8
20260507181520 69 34 6.0 12.0 0.00 0.00 0.00 53 1016.9
20260507180520 68 54 5.0 12.0 0.00 0.00 0.00 53 1017.1
20260507175520 69 20 6.0 11.0 0.00 0.00 0.00 54 1017.3
20260507174514 68 96 5.0 11.0 0.00 0.00 0.00 55 1017.4
20260507173511 68 117 2.0 12.0 0.00 0.00 0.00 57 1017.8
20260507172504 67 358 2.0 10.0 0.00 0.00 0.00 56 1018.0
20260507171503 66 30 3.0 7.0 0.00 0.00 0.00 60 1018.4
20260507170501 66 31 3.0 11.0 0.00 0.00 0.00 61 1018.6
20260507165501 65 48 4.0 7.0 0.00 0.00 0.00 60 1018.9
20260507164501 65 58 2.0 10.0 0.00 0.00 0.00 59 1018.9
20260507163502 65 45 2.0 7.0 0.00 0.00 0.00 62 1018.8
20260507162502 65 110 0.0 11.0 0.00 0.00 0.00 62 1018.9
20260507161501 64 100 3.0 7.0 0.00 0.00 0.00 61 1018.9
20260507160456 64 42 4.0 9.0 0.00 0.00 0.00 64 1018.9
20260507155931 63 38 2.0 10.0 0.00 0.00 0.00 63 1019.0
20260507154929 63 86 2.0 9.0 0.00 0.00 0.00 60 1019.0
20260507153441 62 103 3.0 10.0 0.00 0.00 0.00 63 1019.0
20260507152911 62 51 5.0 9.0 0.00 0.02 0.00 69 1019.2
20260507151432 61 52 3.0 7.0 0.00 0.03 0.00 69 1019.2
20260507150433 60 61 3.0 6.0 0.00 0.04 0.00 74 1019.3
20260507145429 60 338 2.0 5.0 0.00 0.04 0.00 74 1019.4
20260507144429 60 51 1.0 9.0 0.00 0.04 0.00 75 1019.5
20260507143429 59 37 4.0 7.0 0.00 0.04 0.00 74 1019.6
20260507142428 59 44 3.0 6.0 0.00 0.04 0.00 78 1019.5
20260507141429 58 10 5.0 7.0 0.00 0.04 0.00 78 1019.6
20260507140428 57 21 4.0 6.0 0.00 0.04 0.00 79 1019.7
20260507135429 56 37 2.0 4.0 0.00 0.04 0.00 81 1019.8
20260507134429 55 13 2.0 5.0 0.00 0.04 0.00 82 1019.8
20260507133425 55 23 3.0 5.0 0.00 0.04 0.00 82 1019.9
20260507132418 54 52 2.0 3.0 0.00 0.04 0.00 82 1020.0
20260507131418 54 48 2.0 3.0 0.00 0.04 0.00 83 1019.9
20260507130417 53 63 1.0 2.0 0.00 0.04 0.00 85 1019.9
20260507125417 53 293 0.0 2.0 0.00 0.04 0.00 86 1019.7
20260507124418 53 52 2.0 3.0 0.00 0.04 0.00 86 1019.5
20260507123419 52 55 1.0 2.0 0.00 0.04 0.00 88 1019.5
20260507122419 52 279 0.0 1.0 0.00 0.04 0.00 89 1019.5
20260507121420 51 279 0.0 0.0 0.00 0.04 0.00 90 1019.4
20260507120419 51 279 0.0 1.0 0.00 0.04 0.00 90 1019.2
20260507115418 51 283 0.0 0.0 0.00 0.04 0.00 89 1019.0
20260507114906 51 283 0.0 0.0 0.00 0.04 0.00 89 1019.1
20260507113419 51 278 0.0 1.0 0.00 0.04 0.00 89 1018.8
20260507112906 51 300 0.0 2.0 0.00 0.04 0.00 89 1018.8